Regional Weather Roundup
Issued by NWS

Home | Current Version | Previous Version | Text Only | Print | Product List | Glossary On
Versions: 1 2 3 4 5 6 7 8 9 10 11 12 13 14 15 16 17 18 19 20 21 22 23 24 25 26 27 28 29 30 31 32 33 34 35 36 37 38 39 40 41 42 43 44 45 46 47 48 49 50
000
ASUS43 KFSD 251510
RWRSD

WEATHER ROUNDUP FOR SOUTH DAKOTA
NATIONAL WEATHER SERVICE SIOUX FALLS SD
1000 AM CDT WED MAY 25 2016

NOTE: "FAIR" INDICATES FEW OR NO CLOUDS BELOW 12,000 FEET WITH NO
SIGNIFICANT WEATHER AND/OR OBSTRUCTIONS TO VISIBILITY.


SDZ001>005-009-010-012>017-251600-
NORTHWEST AND NORTH CENTRAL SOUTH DAKOTA

CITY           SKY/WX    TMP DP  RH WIND       PRES   REMARKS
BUFFALO          N/A     57  50  77 W17       29.77F
FAITH            N/A     62  50  64 W14       29.80F
MOBRIDGE       CLOUDY    65  55  70 SE6       29.76S
$$

SDZ012>016-024>037-041>051-057-063-072>074-251600-
SOUTHWEST AND SOUTH CENTRAL SOUTH DAKOTA

CITY           SKY/WX    TMP DP  RH WIND       PRES   REMARKS
RAPID CTY ARPT SUNNY     60  51  72 S7        29.83F
PIERRE         MOSUNNY   62  56  80 W13       29.78S
CUSTER         CLOUDY    50  45  83 VRB7      29.92R
ELLSWORTH AFB  SUNNY     62  52  69 SW7       29.83F
PHILIP         MOSUNNY   63  53  70 W10       29.82S
PINE RIDGE     SUNNY     59  50  72 SW13      29.88S
WINNER         CLOUDY    64  57  78 W14       29.81S
$$

SDZ004>011-016>023-039-040-251600-
NORTHEAST SOUTH DAKOTA

CITY           SKY/WX    TMP DP  RH WIND       PRES   REMARKS
ABERDEEN       CLOUDY    62  58  86 N13       29.74F
WATERTOWN      LGT RAIN  62  59  90 S10       29.75S
BROOKINGS      PTSUNNY   66  59  77 S16G22    29.77
SISSETON         N/A     63  60  90 E9        29.74S
$$

SDZ017-020-022-023-036>040-048>070-251600-
SOUTHEAST SOUTH DAKOTA

CITY           SKY/WX    TMP DP  RH WIND       PRES   REMARKS
SIOUX FALLS    CLOUDY    68  60  75 S13       29.79S
HURON          CLOUDY    63  59  87 W14       29.76R
CHAMBERLAIN    CLOUDY    65  60  83 W14       29.80R
MITCHELL       CLOUDY    65  60  84 W7        29.78R
YANKTON        MOSUNNY   66  59  77 SW12      29.79R
$$

ABBREVIATIONS USED IN REMARKS
   TC - TEMPERATURE IN CELSIUS
  WCI - WIND CHILL INDEX
   HX - HEAT INDEX
  VSB - VISIBILITY





USA.gov is the U.S. government's official web portal to all federal, state and local government web resources and services.